This demonstration page uses our WeatherBlox Daily Observations layout. Learn more.

Left ArrowRight Arrow

39.08367, -84.50855

Hourly Observations for August 14, 2019

Temp ( °F °C ) Dew Point ( °F °C ) Humidity (%) Winds ( mph kmh ) Pressure ( in mb ) Visibility ( mi km ) Precip ( " mm )
12:01 am 00:01 Clear with Mist and Fog 72 22.2 71 21.7 97 97 N N/A 29.85 1011 4 6 N/A
12:10 am 00:10 Clear with Mist and Fog 72 22.2 71 21.7 97 97 N N/A 29.85 1011 2 3 N/A
12:23 am 00:23 Partly Cloudy with Mist and Fog 71 21.7 71 21.7 100 100 SSE 3 6 29.87 1011 3 5 N/A
12:31 am 00:31 Mostly Cloudy with Mist and Fog 70 21.1 70 21.1 100 100 N N/A 29.87 1011 6 10 N/A
12:48 am 00:48 Partly Cloudy with Mist and Fog 72 22 70 21 94 94 N N/A 29.86 1011 6 10 N/A
12:53 am 00:53 Mostly Clear 71 21.7 70 21.1 96 96 N N/A 29.87 1011 7 11 N/A
1:53 am 01:53 Mostly Cloudy 72 22.2 71 21.7 97 97 N N/A 29.88 1012 7 11 N/A
2:48 am 02:48 Mostly Clear with Mist and Fog 72 22 72 22 100 100 N N/A 29.86 1011 2 3 N/A
2:53 am 02:53 Mostly Clear with Mist and Fog 71 21.7 71 21.7 100 100 N N/A 29.87 1012 3 5 N/A
3:28 am 03:28 Clear with Mist and Fog 70 21.1 69 20.6 97 97 N N/A 29.87 1011 3 4 N/A
3:39 am 03:39 Clear with Mist and Fog 69 20.6 69 20.6 100 100 N N/A 29.87 1011 1 2 N/A
3:48 am 03:48 Clear with Mist and Fog 70 21 70 21 100 100 N N/A 29.87 1011 3 5 N/A
3:53 am 03:53 Mostly Clear with Mist and Fog 69 20.6 69 20.6 100 100 N N/A 29.87 1011 3 4 N/A
4:01 am 04:01 Mostly Clear with Mist and Fog 70 21.1 70 21.1 100 100 N N/A 29.88 1012 2 3 N/A
4:03 am 04:03 Clear with Mist and Fog 70 21.1 70 21.1 100 100 N N/A 29.88 1012 3 5 N/A
4:27 am 04:27 Clear with Mist and Fog 69 20.6 69 20.6 100 100 N N/A 29.88 1012 1 1 N/A
4:32 am 04:32 Clear with Mist and Fog 70 21.1 70 21.1 100 100 N N/A 29.88 1012 3 4 N/A
4:39 am 04:39 Clear with Mist and Fog 69 20.6 69 20.6 100 100 N N/A 29.88 1012 5 8 N/A
4:53 am 04:53 Mostly Clear with Mist and Fog 69 20.6 68 20 96 96 N N/A 29.87 1012 3 5 N/A
4:55 am 04:55 Mostly Cloudy with Mist and Fog 69 20.6 69 20.6 100 100 ENE 3 6 29.88 1012 1 2 N/A
5:02 am 05:02 Mostly Cloudy with Fog 69 20.6 68 20 96 96 N N/A 29.88 1012 0 0 N/A
5:11 am 05:11 Mostly Cloudy with Fog 69 20.6 69 20.6 100 100 N N/A 29.88 1012 1 1 N/A
5:24 am 05:24 Mostly Cloudy with Mist and Fog 69 20.6 69 20.6 100 100 N N/A 29.88 1012 1 2 N/A
5:27 am 05:27 Partly Cloudy with Mist and Fog 69 20.6 69 20.6 100 100 N N/A 29.88 1012 2 3 N/A
5:35 am 05:35 Mostly Clear with Mist and Fog 69 20.6 69 20.6 100 100 N 3 6 29.89 1012 5 8 N/A
5:50 am 05:50 Mostly Clear with Mist and Fog 70 21 70 21 100 100 N N/A 29.90 1012 2 2 N/A
5:53 am 05:53 Partly Cloudy with Mist and Fog 70 21.1 70 21.1 100 100 N N/A 29.89 1012 1 2 N/A
6:01 am 06:01 Partly Cloudy with Mist and Fog 68 20 68 20 100 100 N N/A 29.90 1012 1 1 N/A
6:11 am 06:11 Partly Cloudy with Mist and Fog 68 20 68 20 100 100 N N/A 29.90 1012 2 3 N/A
6:26 am 06:26 Mostly Cloudy with Fog 68 20 68 20 100 100 N N/A 29.90 1012 1 1 N/A
6:32 am 06:32 Mostly Clear with Mist and Fog 69 20.6 68 20 96 96 N N/A 29.90 1012 1 2 N/A
6:40 am 06:40 Mostly Clear with Mist and Fog 68 20 68 20 100 100 NE 3 6 29.90 1012 2 3 N/A
6:42 am 06:42 Mostly Cloudy with Mist and Fog 68 20 68 20 100 100 NE 3 6 29.90 1012 1 2 N/A
6:49 am 06:49 Partly Cloudy with Mist and Fog 68 20 68 20 100 100 N N/A 29.91 1013 3 5 N/A
6:53 am 06:53 Partly Cloudy with Mist and Fog 69 20.6 69 20.6 100 100 NNW 3 6 29.91 1013 3 5 N/A
7:53 am 07:53 Partly Cloudy with Mist and Fog 70 21.1 69 20.6 97 97 N N/A 29.92 1013 3 5 N/A
8:53 am 08:53 Cloudy with Mist and Fog 73 22.8 72 22.2 96 96 N N/A 29.92 1013 3 5 N/A
9:53 am 09:53 Cloudy with Mist and Fog 75 23.9 72 22.2 90 90 NE 5 7 29.93 1014 4 6 N/A
10:40 am 10:40 Cloudy with Mist and Fog 77 25 72 22.2 85 85 VRB 3 6 29.93 1014 5 8 N/A
10:53 am 10:53 Mostly Cloudy with Mist and Fog 78 25.6 73 22.8 85 85 VRB 5 7 29.94 1014 5 8 N/A
11:53 am 11:53 Mostly Cloudy with Mist and Fog 80 26.7 72 22.2 76 76 E 6 9 29.94 1014 7 11 N/A
12:00 pm 12:00 Mostly Cloudy 80 26.7 72 22.2 76 76 N N/A 29.94 1014 8 13 N/A
12:53 pm 12:53 Mostly Cloudy 84 28.9 72 22.2 67 67 VRB 3 6 29.93 1014 8 13 N/A
1:53 pm 13:53 Partly Cloudy 84 28.9 70 21.1 63 63 N N/A 29.92 1013 10 16 N/A
2:53 pm 14:53 Partly Cloudy 87 30.6 69 20.6 55 55 NW 7 11 29.90 1013 10 16 N/A
3:53 pm 15:53 Partly Cloudy 88 31.1 67 19.4 50 50 N N/A 29.89 1012 10 16 N/A
4:53 pm 16:53 Partly Cloudy 87 30.6 69 20.6 55 55 SSE 3 6 29.88 1012 10 16 N/A
5:53 pm 17:53 Partly Cloudy 87 30.6 65 18.3 48 48 SSE 3 6 29.86 1011 10 16 N/A
6:53 pm 18:53 Mostly Cloudy 88 31.1 64 17.8 45 45 VRB 3 6 29.85 1011 10 16 N/A
7:53 pm 19:53 Mostly Cloudy 83 28.3 71 21.7 67 67 NNE 5 7 29.86 1011 10 16 N/A
8:53 pm 20:53 Mostly Cloudy 80 26.7 71 21.7 74 74 ENE 3 6 29.88 1012 10 16 N/A
9:53 pm 21:53 Mostly Clear 76 24.4 71 21.7 85 85 N N/A 29.91 1013 10 16 N/A
10:53 pm 22:53 Clear 73 22.8 71 21.7 94 94 N N/A 29.92 1013 9 14 N/A
11:53 pm 23:53 Clear 71 21.7 70 21.1 96 96 N N/A 29.93 1013 7 11 N/A

Powered by AerisWeather